| time (UTC) | temp F | wind direction | speed MPH | gust MPH | rain 1hr in | rain 24hr in | rain mn in | humidity % | barometer mb |
| 20260905230027 | 72 | 160 | 3.0 | 10.0 | 0.00 | 0.00 | 0.00 | 45 | 1011.7 |
| 20260905224513 | 73 | 190 | 2.0 | 7.0 | 0.00 | 0.00 | 0.00 | 45 | 1011.9 |
| 20260905223003 | 72 | 217 | 2.0 | 11.0 | 0.00 | 0.00 | 0.00 | 48 | 1012.0 |
| 20260905221539 | 72 | 219 | 4.0 | 9.0 | 0.00 | 0.00 | 0.00 | 46 | 1012.1 |
| 20260905220036 | 72 | 210 | 1.0 | 8.0 | 0.00 | 0.00 | 0.00 | 44 | 1012.3 |
| 20260905214517 | 72 | 188 | 2.0 | 9.0 | 0.00 | 0.00 | 0.00 | 42 | 1012.7 |
| 20260905213015 | 73 | 224 | 2.0 | 9.0 | 0.00 | 0.00 | 0.00 | 44 | 1012.7 |
| 20260905211507 | 71 | 204 | 3.0 | 6.0 | 0.00 | 0.00 | 0.00 | 43 | 1013.0 |
| 20260905210004 | 72 | 195 | 3.0 | 9.0 | 0.00 | 0.00 | 0.00 | 38 | 1013.0 |
| 20260905204502 | 72 | 191 | 3.0 | 7.0 | 0.00 | 0.00 | 0.00 | 40 | 1013.2 |
| 20260905203001 | 72 | 224 | 3.0 | 8.0 | 0.00 | 0.00 | 0.00 | 38 | 1013.2 |
| 20260905201520 | 72 | 158 | 3.0 | 7.0 | 0.00 | 0.00 | 0.00 | 43 | 1013.3 |
| 20260905200024 | 70 | 197 | 4.0 | 8.0 | 0.00 | 0.00 | 0.00 | 46 | 1013.3 |
| 20260905194515 | 70 | 190 | 3.0 | 5.0 | 0.00 | 0.00 | 0.00 | 34 | 1013.6 |
| 20260905193014 | 70 | 169 | 3.0 | 8.0 | 0.00 | 0.00 | 0.00 | 35 | 1013.8 |
| 20260905190058 | 71 | 188 | 2.0 | 9.0 | 0.00 | 0.00 | 0.00 | 34 | 1014.0 |
| 20260905184549 | 71 | 197 | 3.0 | 7.0 | 0.00 | 0.00 | 0.00 | 33 | 1014.1 |
| 20260905183057 | 70 | 191 | 3.0 | 8.0 | 0.00 | 0.00 | 0.00 | 42 | 1014.4 |
| 20260905180025 | 69 | 210 | 3.0 | 9.0 | 0.00 | 0.00 | 0.00 | 32 | 1014.5 |
| 20260905174525 | 69 | 222 | 3.0 | 8.0 | 0.00 | 0.00 | 0.00 | 36 | 1014.5 |
| 20260905173100 | 68 | 198 | 2.0 | 6.0 | 0.00 | 0.00 | 0.00 | 28 | 1014.5 |
| 20260905173001 | 68 | 187 | 2.0 | 6.0 | 0.00 | 0.00 | 0.00 | 29 | 1014.5 |
| 20260905171659 | 68 | 198 | 2.0 | 7.0 | 0.00 | 0.00 | 0.00 | 26 | 1014.5 |
| 20260905170039 | 67 | 166 | 1.0 | 4.0 | 0.00 | 0.00 | 0.00 | 11 | 1014.3 |
| 20260905164537 | 67 | 200 | 2.0 | 7.0 | 0.00 | 0.00 | 0.00 | 11 | 1014.2 |
| 20260905163016 | 66 | 188 | 2.0 | 6.0 | 0.00 | 0.00 | 0.00 | 12 | 1014.1 |
| 20260905161514 | 65 | 218 | 1.0 | 5.0 | 0.00 | 0.00 | 0.00 | 10 | 1013.9 |
| 20260905160057 | 64 | 207 | 3.0 | 5.0 | 0.00 | 0.00 | 0.00 | 11 | 1014.0 |
| 20260905154550 | 64 | 211 | 1.0 | 7.0 | 0.00 | 0.00 | 0.00 | 11 | 1013.9 |
| 20260905153037 | 63 | 205 | 2.0 | 4.0 | 0.00 | 0.00 | 0.00 | 11 | 1013.7 |
| 20260905151526 | 62 | 188 | 0.0 | 2.0 | 0.00 | 0.00 | 0.00 | 13 | 1013.6 |
| 20260905150006 | 62 | 181 | 0.0 | 3.0 | 0.00 | 0.00 | 0.00 | 10 | 1013.3 |
| 20260905144506 | 60 | 207 | 1.0 | 4.0 | 0.00 | 0.00 | 0.00 | 11 | 1013.1 |
| 20260905143042 | 59 | 158 | 0.0 | 2.0 | 0.00 | 0.00 | 0.00 | 13 | 1012.9 |
| 20260905141554 | 59 | 147 | 0.0 | 0.0 | 0.00 | 0.00 | 0.00 | 13 | 1012.6 |
| 20260905140021 | 59 | 159 | 0.0 | 3.0 | 0.00 | 0.00 | 0.00 | 13 | 1012.4 |
| 20260905134517 | 59 | 207 | 2.0 | 5.0 | 0.00 | 0.00 | 0.00 | 12 | 1012.1 |
| 20260905133126 | 59 | 205 | 0.0 | 2.0 | 0.00 | 0.00 | 0.00 | 17 | 1012.0 |
| 20260905131612 | 58 | 231 | 0.0 | 2.0 | 0.00 | 0.00 | 0.00 | 20 | 1011.6 |
| 20260905130034 | 58 | 221 | 0.0 | 4.0 | 0.00 | 0.00 | 0.00 | 22 | 1011.6 |
| 20260905124531 | 57 | 194 | 1.0 | 3.0 | 0.00 | 0.00 | 0.00 | 25 | 1011.5 |
| 20260905123014 | 57 | 190 | 1.0 | 3.0 | 0.00 | 0.00 | 0.00 | 27 | 1011.3 |
| 20260905121512 | 56 | 176 | 1.0 | 3.0 | 0.00 | 0.00 | 0.00 | 28 | 1011.2 |
| 20260905120052 | 56 | 158 | 0.0 | 2.0 | 0.00 | 0.00 | 0.00 | 35 | 1011.1 |
| 20260905114553 | 56 | 214 | 0.0 | 0.0 | 0.00 | 0.00 | 0.00 | 37 | 1011.2 |
| 20260905113033 | 56 | 158 | 0.0 | 1.0 | 0.00 | 0.00 | 0.00 | 36 | 1011.2 |
| 20260905111531 | 56 | 194 | 0.0 | 1.0 | 0.00 | 0.00 | 0.00 | 38 | 1011.3 |
| 20260905110012 | 56 | 198 | 0.0 | 3.0 | 0.00 | 0.00 | 0.00 | 38 | 1011.4 |
| 20260905104512 | 56 | 195 | 0.0 | 4.0 | 0.00 | 0.00 | 0.00 | 38 | 1011.3 |
| 20260905103054 | 56 | 205 | 0.0 | 0.0 | 0.00 | 0.00 | 0.00 | 38 | 1011.4 |
| 20260905101552 | 56 | 205 | 0.0 | 1.0 | 0.00 | 0.00 | 0.00 | 36 | 1011.4 |
| 20260905100033 | 56 | 188 | 0.0 | 1.0 | 0.00 | 0.00 | 0.00 | 37 | 1011.4 |
| 20260905094533 | 56 | 154 | 0.0 | 0.0 | 0.00 | 0.00 | 0.00 | 37 | 1011.4 |
| 20260905093014 | 56 | 141 | 0.0 | 0.0 | 0.00 | 0.00 | 0.00 | 38 | 1011.4 |
| 20260905091513 | 56 | 169 | 0.0 | 1.0 | 0.00 | 0.00 | 0.00 | 38 | 1011.3 |
| 20260905090006 | 57 | 191 | 0.0 | 2.0 | 0.00 | 0.00 | 0.00 | 38 | 1011.5 |
| 20260905084503 | 57 | 211 | 0.0 | 2.0 | 0.00 | 0.00 | 0.00 | 38 | 1011.7 |
| 20260905083002 | 56 | 139 | 0.0 | 1.0 | 0.00 | 0.00 | 0.00 | 38 | 1011.8 |
| 20260905081603 | 57 | 213 | 0.0 | 2.0 | 0.00 | 0.00 | 0.00 | 38 | 1012.0 |
| 20260905080057 | 57 | 167 | 0.0 | 4.0 | 0.00 | 0.00 | 0.00 | 37 | 1012.0 |
| 20260905074602 | 57 | 188 | 0.0 | 5.0 | 0.00 | 0.00 | 0.00 | 36 | 1012.0 |
| 20260905073027 | 57 | 197 | 0.0 | 4.0 | 0.00 | 0.00 | 0.00 | 36 | 1012.2 |
| 20260905071526 | 57 | 212 | 0.0 | 5.0 | 0.00 | 0.00 | 0.00 | 35 | 1012.0 |
| 20260905070002 | 57 | 179 | 1.0 | 2.0 | 0.00 | 0.00 | 0.00 | 36 | 1012.0 |
| 20260905064557 | 57 | 226 | 0.0 | 3.0 | 0.00 | 0.00 | 0.00 | 35 | 1011.9 |
| 20260905063034 | 58 | 201 | 1.0 | 4.0 | 0.00 | 0.00 | 0.00 | 35 | 1011.8 |
| 20260905061530 | 58 | 173 | 1.0 | 4.0 | 0.00 | 0.00 | 0.00 | 34 | 1011.7 |
| 20260905060008 | 58 | 192 | 1.0 | 4.0 | 0.00 | 0.00 | 0.00 | 35 | 1011.7 |
| 20260905054504 | 58 | 217 | 1.0 | 4.0 | 0.00 | 0.00 | 0.00 | 33 | 1011.7 |
| 20260905053048 | 58 | 180 | 2.0 | 4.0 | 0.00 | 0.00 | 0.00 | 33 | 1011.7 |
| 20260905051545 | 58 | 211 | 0.0 | 3.0 | 0.00 | 0.00 | 0.00 | 35 | 1011.7 |
| 20260905050038 | 58 | 172 | 1.0 | 5.0 | 0.00 | 0.00 | 0.00 | 34 | 1011.7 |
| 20260905044539 | 58 | 201 | 0.0 | 4.0 | 0.00 | 0.00 | 0.00 | 33 | 1011.5 |
| 20260905043029 | 58 | 208 | 0.0 | 4.0 | 0.00 | 0.00 | 0.00 | 35 | 1011.4 |
| 20260905041525 | 58 | 205 | 0.0 | 3.0 | 0.00 | 0.00 | 0.00 | 37 | 1011.4 |
| 20260905040020 | 59 | 201 | 1.0 | 4.0 | 0.00 | 0.00 | 0.00 | 36 | 1011.3 |
| 20260905034517 | 59 | 191 | 1.0 | 3.0 | 0.00 | 0.00 | 0.00 | 36 | 1011.2 |
| 20260905033102 | 59 | 214 | 1.0 | 3.0 | 0.00 | 0.00 | 0.00 | 36 | 1011.0 |
| 20260905031601 | 59 | 194 | 1.0 | 4.0 | 0.00 | 0.00 | 0.00 | 37 | 1010.8 |
| 20260905030035 | 59 | 203 | 0.0 | 3.0 | 0.00 | 0.00 | 0.00 | 38 | 1010.8 |
| 20260905024538 | 60 | 192 | 0.0 | 2.0 | 0.00 | 0.00 | 0.00 | 35 | 1010.7 |
| 20260905023030 | 60 | 228 | 0.0 | 3.0 | 0.00 | 0.00 | 0.00 | 33 | 1010.6 |
| 20260905021521 | 60 | 208 | 1.0 | 2.0 | 0.00 | 0.00 | 0.00 | 35 | 1010.6 |
| 20260905020016 | 60 | 197 | 0.0 | 1.0 | 0.00 | 0.00 | 0.00 | 39 | 1010.4 |
| 20260905014512 | 61 | 198 | 0.0 | 2.0 | 0.00 | 0.00 | 0.00 | 47 | 1010.5 |
| 20260905013010 | 61 | 199 | 1.0 | 3.0 | 0.00 | 0.00 | 0.00 | 42 | 1010.3 |
| 20260905011512 | 62 | 176 | 0.0 | 2.0 | 0.00 | 0.00 | 0.00 | 51 | 1010.3 |
| 20260905010052 | 63 | 194 | 1.0 | 3.0 | 0.00 | 0.00 | 0.00 | 57 | 1010.3 |
| 20260905004540 | 64 | 192 | 1.0 | 4.0 | 0.00 | 0.00 | 0.00 | 55 | 1010.3 |
| 20260905003027 | 64 | 192 | 1.0 | 5.0 | 0.00 | 0.00 | 0.00 | 56 | 1010.4 |
| 20260905001512 | 64 | 236 | 1.0 | 4.0 | 0.00 | 0.00 | 0.00 | 58 | 1010.4 |
| 20260905000109 | 64 | 148 | 3.0 | 7.0 | 0.00 | 0.00 | 0.00 | 61 | 1010.6 |
| 20260904234546 | 64 | 174 | 2.0 | 7.0 | 0.00 | 0.00 | 0.00 | 61 | 1010.5 |
| 20260904233043 | 65 | 200 | 2.0 | 7.0 | 0.00 | 0.00 | 0.00 | 60 | 1010.6 |
| 20260904231522 | 65 | 207 | 2.0 | 7.0 | 0.00 | 0.00 | 0.00 | 59 | 1010.6 |